Regional Weather Roundup
Issued by NWS Boston, MA

Current Version | Previous Version | Text Only | Print | Product List | Glossary Off
Versions: 1 2 3 4 5 6 7 8 9 10 11 12 13 14 15 16 17 18 19 20 21 22 23 24 25 26 27 28
000 ASUS41 KBOX 292310 RWRBOX REGIONAL WEATHER ROUNDUP NATIONAL WEATHER SERVICE TAUNTON MA 700 PM EDT SAT APR 29 2017 NOTE: "FAIR" INDICATES FEW OR NO CLOUDS BELOW 12,000 FEET WITH NO SIGNIFICANT WEATHER AND/OR OBSTRUCTIONS TO VISIBILITY. MAZALL-300000- EASTERN MASSACHUSETTS CITY SKY/WX TMP DP RH WIND PRES REMARKS BOSTON CLOUDY 76 52 43 W17G33 29.88S BEVERLY CLOUDY 75 54 47 W10G22 29.86R LAWRENCE CLOUDY 76 52 43 W22G29 29.89R BEDFORD CLOUDY 74 48 39 W21G31 29.88F BLUE HILL N/A 75 52 44 W29G45 29.89S NORWOOD CLOUDY 77 54 44 W21G36 29.90R MARSHFIELD CLOUDY 79 55 44 NW15G26 29.88R PLYMOUTH CLOUDY 79 53 40 W17G28 29.89R TAUNTON CLOUDY 79 53 40 NW13G24 29.89R NEW BEDFORD CLOUDY 77 61 57 W5 29.89R $$ MAZALL-300000- CAPE COD AND THE ISLANDS CITY SKY/WX TMP DP RH WIND PRES REMARKS FALMOUTH CLEAR 66 59 77 MISG 29.91S HYANNIS MOCLDY 72 60 66 W13G24 29.88R CHATHAM CLOUDY 69 61 75 VRB6 29.90R PROVINCETOWN CLOUDY 67 53 61 W24G30 29.89R NANTUCKET CLEAR 61 55 81 W20G28 29.91R MARTHAS VNYRD CLEAR 73 59 61 W12G28 29.90R $$ MAZALL-300000- CENTRAL AND WESTERN MASSACHUSETTS CITY SKY/WX TMP DP RH WIND PRES REMARKS WORCESTER PTCLDY 68 47 46 W21G37 29.96F FITCHBURG PTCLDY 72 49 44 W10G31 29.93S ORANGE MOCLDY 67 48 50 W9G20 29.96F SPRINGFIELD PTCLDY 70 49 47 NW13 29.95F WESTFIELD CLEAR 69 51 52 NW13G22 29.95F NORTH ADAMS CLOUDY 62 45 53 W15G29 29.99F PITTSFIELD PTCLDY 61 45 55 W21G30 30.00F $$ RIZALL-300000- RHODE ISLAND CITY SKY/WX TMP DP RH WIND PRES REMARKS PROVIDENCE MOCLDY 80 56 43 NW14G24 29.91R NEWPORT CLOUDY 71 59 65 VRB3 29.90S BLOCK ISLAND PTCLDY 62 55 77 SW17 29.93S SMITHFIELD PTCLDY 74 54 49 NW15G30 29.94R WESTERLY PTCLDY 67 56 67 W3 29.92R $$ CTZALL-300000- CONNECTICUT CITY SKY/WX TMP DP RH WIND PRES REMARKS BRADLEY INTL PTCLDY 72 53 51 N13 29.95F HARTFORD MOCLDY 74 54 49 N12 29.94S BRIDGEPORT PTCLDY 82 56 40 W13G25 29.94S DANBURY PTCLDY 77 57 50 NW13G23 29.98R GROTON PTCLDY 68 56 65 W6 29.89F NEW HAVEN PTCLDY 79 57 46 NW8 29.93F CHESTER FAIR 81 55 41 NW10G21 29.94S MERIDEN PTCLDY 79 55 43 NW13 29.95R WILLIMANTIC PTCLDY 77 54 44 NW16G23 29.95R OXFORD PTCLDY 73 52 46 N12G17 29.99F $$ MEZ002-015-021-024-NHZ003-005-008-011-012-014-VTZ005-008-300000- NORTHERN NEW ENGLAND CITY SKY/WX TMP DP RH WIND PRES REMARKS PORTLAND ME CLOUDY 73 46 38 W14G23 29.80R BANGOR ME MOCLDY 71 40 32 W20G29 29.76R CONCORD NH CLOUDY 72 49 44 W17G25 29.88S MANCHESTER NH MOCLDY 74 48 39 W15G24 29.88R NASHUA NH CLOUDY 73 52 47 W8G18 29.89S PORTSMOUTH NH MOCLDY 74 48 39 W20G26 29.84R JAFFREY NH MOCLDY 67 50 54 W13 29.96S KEENE NH CLOUDY 68 49 50 W9G17 29.95F BURLINGTON VT CLOUDY 64 34 32 N21G31 29.99R MT. WASHINGTON MOCLDY 39 36 87 W76G85 N/A WCI 22 $$ NYZ052-076-300000- EASTERN NEW YORK CITY SKY/WX TMP DP RH WIND PRES REMARKS ALBANY CLOUDY 61 42 49 W16 30.05F NEW YORK CITY CLOUDY 83 57 41 W12G22 29.96F $$ ANZALL-300000- MARINE OBSERVATIONS STATION/POSITION TIME TEMP WIND PRES VSBY WAVE AIR SEA DIR/SP/G HT/PER (UTC) (F) (DEG/KT/KT) (MB) (MI) (FT/S) BOSTON BUOY 2150 66 50 290/ 19/ 23 1010.5 2/ 8 BUZZARDS BAY 2200 55 240/ 22/ 24 1012.7R NANTUCKET SOUND 2250 48 1011.9R 2/ 4 MASS BAY-STELLWA 2204 63 47 290/ 14/ 17 1010.4R 3/ 8 ISLE OF SHOALS 2300 74 270/ 22/ 25 1010.2R S OF BLOCK IS 2225 49 N/A 4/ 5 $$ ......................KEY......................... SKY/WX - SKY CONDITION/PRESENT WEATHER TMP - TEMPERATURE IN FAHRENHEIT DWPT - DEWPOINT IN FAHRENHEIT RH - RELATIVE HUMIDITY IN PERCENT WIND - DIRECTION AND SPEED IN MPH PRES - MEAN SEA LEVEL PRESSURE IN INCHES OF HG WCI - WIND CHILL INDEX VSB - VISIBILITY IN MILES HX - HEAT INDEX TC - TEMPERATURE IN CELSIUS VRB - VARIABLE WIND DIRECTION N/A - NOT AVAILABLE

USA.gov is the U.S. government's official web portal to all federal, state and local government web resources and services.